EW0591 Weather Reports


Display with metric or nautical units.
time (UTC)temp
F
wind
direction
speed
MPH
gust
MPH
rain 1hr
in
rain 24hr
in
rain mn
in
humidity
%
barometer
mb
20260902235026 64 204 1.0 1.0 0.00 0.26 0.26 64 1018.1
20260902234521 64 206 1.0 1.0 0.00 0.26 0.26 63 1018.1
20260902234019 63 245 0.0 0.0 0.00 0.26 0.26 67 1018.3
20260902233514 62 222 2.0 2.0 0.00 0.26 0.26 67 1018.6
20260902233008 62 250 0.0 0.0 0.00 0.26 0.26 70 1018.5
20260902232502 61 250 0.0 0.0 0.00 0.26 0.26 69 1018.6
20260902231956 61 265 0.0 0.0 0.00 0.26 0.26 69 1018.5
20260902231451 61 225 1.0 1.0 0.00 0.26 0.26 70 1018.6
20260902230946 61 300 0.0 1.0 0.00 0.26 0.26 73 1018.6
20260902230445 60 183 0.0 0.0 0.00 0.26 0.26 73 1018.5
20260902225939 61 296 2.0 2.0 0.00 0.26 0.26 72 1018.5
20260902225435 61 273 1.0 1.0 0.00 0.26 0.26 73 1018.7
20260902224934 60 217 0.0 0.0 0.00 0.26 0.26 76 1018.8
20260902224433 60 228 0.0 0.0 0.00 0.26 0.26 76 1018.8
20260902223930 59 37 1.0 2.0 0.00 0.26 0.26 82 1019.0
20260902223425 57 225 0.0 0.0 0.00 0.26 0.26 84 1019.0
20260902222924 55 226 0.0 1.0 0.00 0.26 0.26 90 1019.4
20260902222422 55 276 0.0 0.0 0.00 0.26 0.26 91 1019.5
20260902221917 56 209 0.0 1.0 0.00 0.26 0.26 92 1019.7
20260902221416 56 228 0.0 0.0 0.00 0.26 0.26 93 1019.4
20260902220911 55 252 0.0 0.0 0.00 0.26 0.26 93 1019.7
20260902220406 55 339 2.0 2.0 0.00 0.26 0.26 93 1019.7
20260902215901 56 264 0.0 0.0 0.00 0.26 0.26 93 1019.7
20260902215356 55 260 0.0 0.0 0.00 0.26 0.26 93 1019.7
20260902214852 55 254 0.0 0.0 0.00 0.26 0.26 93 1019.8
20260902214351 55 291 0.0 0.0 0.00 0.26 0.26 93 1019.7
20260902213846 54 247 0.0 0.0 0.00 0.26 0.26 93 1019.5
20260902213342 54 250 1.0 2.0 0.00 0.26 0.26 92 1019.7
20260902212840 53 262 0.0 1.0 0.00 0.26 0.26 93 1019.7
20260902212337 54 251 2.0 3.0 0.00 0.26 0.26 93 1019.4
20260902211833 54 252 1.0 2.0 0.00 0.26 0.26 93 1019.7
20260902211329 54 233 4.0 6.0 0.00 0.26 0.26 93 1019.1
20260902210824 54 238 4.0 6.0 0.00 0.26 0.26 93 1019.1
20260902210323 53 250 4.0 5.0 0.00 0.26 0.26 93 1019.0
20260902205821 53 207 1.0 2.0 0.00 0.26 0.26 93 1019.0
20260902205316 53 255 0.0 0.0 0.00 0.26 0.26 93 1018.5
20260902204812 53 149 4.0 5.0 0.00 0.26 0.26 93 1018.8
20260902204307 53 317 1.0 2.0 0.07 0.26 0.26 93 1018.3
20260902203802 53 347 4.0 5.0 0.07 0.26 0.26 93 1018.6
20260902203257 53 349 7.0 10.0 0.12 0.26 0.26 92 1018.9
20260902202751 53 326 7.0 8.0 0.12 0.25 0.25 92 1019.6
20260902202248 53 288 0.0 1.0 0.12 0.24 0.24 92 1020.4
20260902201744 53 33 2.0 2.0 0.19 0.23 0.23 92 1020.8
20260902201244 53 273 1.0 1.0 0.19 0.22 0.22 91 1021.1
20260902200739 53 264 0.0 1.0 0.17 0.20 0.20 91 1021.1
20260902200234 53 312 2.0 2.0 0.19 0.19 0.19 91 1020.8
20260902195730 53 165 5.0 6.0 0.17 0.18 0.18 90 1021.2
20260902195229 54 229 4.0 6.0 0.12 0.16 0.16 90 1021.1
20260902194729 54 164 4.0 5.0 0.19 0.15 0.15 89 1021.0
20260902194224 54 196 8.0 10.0 0.17 0.14 0.14 88 1021.0
20260902193719 55 210 9.0 10.0 0.31 0.12 0.12 87 1020.9
20260902193215 55 132 5.0 7.0 0.42 0.11 0.11 87 1020.6
20260902192712 55 144 10.0 10.0 0.35 0.07 0.07 85 1020.1
20260902192207 56 159 5.0 6.0 0.24 0.04 0.04 82 1020.1
20260902191707 57 163 12.0 16.0 0.12 0.02 0.02 78 1019.8
20260902191201 62 186 14.0 17.0 0.00 0.00 0.00 66 1019.0
20260902190657 62 144 6.0 8.0 0.00 0.00 0.00 61 1018.0
20260902190152 62 205 5.0 7.0 0.00 0.00 0.00 58 1017.0
20260902185647 62 261 3.0 5.0 0.00 0.00 0.00 62 1017.0
20260902185144 62 233 2.0 3.0 0.00 0.00 0.00 62 1017.3
20260902184644 65 274 11.0 14.0 0.00 0.00 0.00 59 1017.3
20260902184139 64 284 4.0 6.0 0.00 0.00 0.00 66 1017.3
20260902183635 64 257 1.0 1.0 0.00 0.00 0.00 68 1017.5
20260902183132 64 215 5.0 6.0 0.00 0.00 0.00 69 1017.5
20260902182627 65 192 7.0 8.0 0.00 0.00 0.00 68 1017.3
20260902182123 65 198 7.0 9.0 0.00 0.00 0.00 68 1017.3
20260902181620 66 173 6.0 8.0 0.00 0.00 0.00 66 1016.9
20260902181118 66 185 5.0 6.0 0.00 0.00 0.00 66 1016.9
20260902180613 66 197 5.0 6.0 0.00 0.00 0.00 66 1016.9
20260902180109 66 212 4.0 5.0 0.00 0.00 0.00 66 1016.8
20260902175608 66 175 4.0 6.0 0.00 0.00 0.00 65 1016.8
20260902175104 66 180 5.0 6.0 0.00 0.00 0.00 64 1016.9
20260902174601 67 216 4.0 5.0 0.00 0.00 0.00 63 1016.9
20260902174056 66 256 1.0 2.0 0.00 0.00 0.00 63 1016.6
20260902173555 67 223 3.0 3.0 0.00 0.00 0.00 64 1016.6
20260902173051 67 184 5.0 5.0 0.00 0.00 0.00 62 1016.4
20260902172545 67 170 4.0 5.0 0.00 0.00 0.00 62 1016.5
20260902172040 66 292 1.0 1.0 0.00 0.00 0.00 64 1016.0
20260902171536 67 264 3.0 3.0 0.00 0.00 0.00 63 1016.0
20260902171031 66 314 4.0 5.0 0.00 0.00 0.00 68 1016.0
20260902170526 66 272 1.0 1.0 0.00 0.00 0.00 67 1016.4
20260902170022 66 256 0.0 0.0 0.00 0.00 0.00 66 1016.4
20260902165521 66 252 0.0 0.0 0.00 0.00 0.00 66 1016.4
20260902165016 67 46 1.0 2.0 0.00 0.00 0.00 65 1016.5
20260902164511 66 258 0.0 1.0 0.00 0.00 0.00 68 1016.4
20260902164010 65 264 1.0 1.0 0.00 0.00 0.00 70 1016.4
20260902163506 64 241 1.0 2.0 0.00 0.00 0.00 71 1016.4
20260902163004 63 29 2.0 2.0 0.00 0.00 0.00 72 1016.3
20260902162458 62 336 3.0 5.0 0.00 0.00 0.00 79 1016.2
20260902161953 61 337 3.0 5.0 0.00 0.00 0.00 80 1016.2
20260902161448 62 348 4.0 5.0 0.00 0.00 0.00 80 1016.0
20260902160944 61 292 4.0 6.0 0.00 0.00 0.00 81 1016.2
20260902160439 61 0 4.0 6.0 0.00 0.00 0.00 81 1015.9
20260902155937 61 285 3.0 3.0 0.00 0.00 0.00 81 1015.9
20260902155433 61 325 3.0 5.0 0.00 0.00 0.00 82 1015.8
20260902154926 61 350 3.0 5.0 0.00 0.00 0.00 83 1015.8
20260902154422 60 356 3.0 5.0 0.00 0.00 0.00 84 1015.8
20260902153921 59 341 3.0 3.0 0.00 0.00 0.00 85 1015.7
20260902153420 59 330 3.0 3.0 0.00 0.00 0.00 85 1015.7
20260902152916 59 309 1.0 1.0 0.00 0.00 0.00 86 1015.9
20260902152412 58 326 2.0 2.0 0.00 0.00 0.00 87 1016.0
20260902151907 58 320 2.0 2.0 0.00 0.00 0.00 89 1016.2
20260902151403 57 338 1.0 1.0 0.00 0.00 0.00 91 1016.2
20260902150857 57 322 3.0 3.0 0.00 0.00 0.00 92 1015.8
20260902150354 56 320 5.0 6.0 0.00 0.00 0.00 93 1016.0
20260902145852 55 327 2.0 2.0 0.00 0.00 0.00 94 1015.8
20260902145348 55 303 2.0 2.0 0.00 0.00 0.00 94 1015.9
20260902144843 54 333 3.0 3.0 0.00 0.00 0.00 94 1015.8
20260902144339 54 323 2.0 3.0 0.00 0.00 0.00 95 1015.7
20260902143833 54 326 1.0 2.0 0.00 0.00 0.00 95 1015.9
20260902143328 54 312 1.0 2.0 0.00 0.00 0.00 95 1015.8
20260902142824 53 278 0.0 0.0 0.00 0.00 0.00 95 1015.7
20260902142320 53 324 0.0 1.0 0.00 0.00 0.00 95 1016.0
20260902141815 53 325 2.0 2.0 0.00 0.00 0.00 95 1016.0
20260902141311 53 287 1.0 2.0 0.00 0.00 0.00 95 1016.2
20260902140810 52 283 0.0 0.0 0.00 0.00 0.00 95 1016.2
20260902140305 52 261 0.0 0.0 0.00 0.00 0.00 94 1016.2
20260902135804 52 260 0.0 0.0 0.00 0.00 0.00 94 1016.0
20260902135300 51 266 0.0 0.0 0.00 0.00 0.00 94 1016.4
20260902134759 52 231 0.0 0.0 0.00 0.00 0.00 94 1016.2
20260902134255 51 263 0.0 0.0 0.00 0.00 0.00 94 1016.2
20260902133750 51 199 1.0 1.0 0.00 0.00 0.00 94 1016.4
20260902133249 50 314 1.0 1.0 0.00 0.00 0.00 94 1016.6
20260902132745 51 243 0.0 1.0 0.00 0.00 0.00 94 1016.4
20260902132241 51 269 0.0 0.0 0.00 0.00 0.00 94 1016.4
20260902131736 51 244 0.0 0.0 0.00 0.00 0.00 94 1016.2
20260902131232 52 245 0.0 0.0 0.00 0.00 0.00 94 1016.5
20260902130732 52 234 0.0 0.0 0.00 0.00 0.00 94 1016.2
20260902130227 52 233 0.0 0.0 0.00 0.00 0.00 94 1016.4
20260902125723 53 249 0.0 0.0 0.00 0.00 0.00 94 1016.4
20260902125219 53 278 0.0 0.0 0.00 0.00 0.00 94 1016.5
20260902124715 52 232 0.0 0.0 0.00 0.00 0.00 94 1016.6
20260902124210 53 243 0.0 0.0 0.00 0.00 0.00 94 1016.6
20260902123705 53 243 0.0 0.0 0.00 0.00 0.00 94 1016.5
20260902123201 53 223 0.0 0.0 0.00 0.00 0.00 94 1016.8
20260902122700 53 228 0.0 0.0 0.00 0.00 0.00 93 1016.6
20260902122156 53 229 0.0 0.0 0.00 0.00 0.00 93 1016.7
20260902121650 54 240 0.0 0.0 0.00 0.00 0.00 93 1016.7
20260902121145 54 235 0.0 0.0 0.00 0.00 0.00 93 1016.7
20260902120641 54 234 0.0 0.0 0.00 0.00 0.00 93 1016.4
20260902120138 54 221 0.0 0.0 0.00 0.00 0.00 93 1016.6
20260902115631 54 9 2.0 2.0 0.00 0.00 0.00 93 1016.5
20260902115128 54 290 0.0 0.0 0.00 0.00 0.00 93 1016.4
20260902114624 54 226 0.0 0.0 0.00 0.00 0.00 93 1015.9
20260902114123 54 234 0.0 0.0 0.00 0.00 0.00 93 1016.0
20260902113614 54 234 0.0 0.0 0.00 0.00 0.00 93 1016.0
20260902113108 54 259 0.0 0.0 0.00 0.00 0.00 93 1016.2
20260902112603 54 233 0.0 0.0 0.00 0.00 0.00 93 1016.4
20260902112100 54 227 0.0 0.0 0.00 0.00 0.00 93 1016.8
20260902111556 53 218 0.0 0.0 0.00 0.00 0.00 93 1016.9
20260902111051 54 254 0.0 0.0 0.00 0.00 0.00 93 1016.8
20260902110548 54 191 0.0 0.0 0.00 0.00 0.00 93 1016.8
20260902110043 55 289 0.0 0.0 0.00 0.00 0.00 92 1017.3
20260902105537 55 219 0.0 0.0 0.00 0.00 0.00 92 1017.7
20260902105032 55 235 0.0 0.0 0.00 0.00 0.00 92 1017.8
20260902104528 55 225 0.0 0.0 0.00 0.00 0.00 92 1018.0
20260902104027 55 214 0.0 0.0 0.00 0.00 0.00 92 1018.3
20260902103523 55 199 1.0 1.0 0.00 0.00 0.00 92 1018.5
20260902103018 55 174 2.0 2.0 0.00 0.00 0.00 92 1018.7
20260902102515 56 233 1.0 1.0 0.00 0.00 0.00 91 1018.9
20260902102011 56 189 3.0 3.0 0.00 0.00 0.00 91 1018.8
20260902101506 56 137 5.0 6.0 0.00 0.00 0.00 91 1018.9
20260902101005 56 200 1.0 1.0 0.00 0.00 0.00 91 1018.7
20260902100500 56 176 1.0 1.0 0.00 0.00 0.00 91 1018.6
20260902100000 56 120 1.0 2.0 0.00 0.00 0.00 91 1018.9
20260902095454 56 179 1.0 2.0 0.00 0.00 0.00 92 1018.7
20260902094954 56 192 0.0 0.0 0.00 0.00 0.00 92 1018.8
20260902094449 56 197 0.0 0.0 0.00 0.00 0.00 92 1018.8
20260902093944 56 165 0.0 1.0 0.00 0.00 0.00 92 1018.6
20260902093439 55 180 3.0 3.0 0.00 0.00 0.00 92 1018.8
20260902092938 55 193 2.0 2.0 0.00 0.00 0.00 92 1018.7
20260902092434 55 190 3.0 3.0 0.00 0.00 0.00 91 1018.7
20260902091934 56 199 3.0 3.0 0.00 0.00 0.00 91 1018.7
20260902091429 56 184 3.0 3.0 0.00 0.00 0.00 90 1018.6
20260902090926 57 207 1.0 2.0 0.00 0.00 0.00 89 1018.8
20260902090426 57 147 3.0 3.0 0.00 0.00 0.00 89 1018.9
20260902085924 57 256 1.0 2.0 0.00 0.00 0.00 90 1018.7
20260902085420 57 181 3.0 3.0 0.00 0.00 0.00 91 1018.7
20260902084915 57 193 1.0 2.0 0.00 0.00 0.00 91 1018.6
20260902084411 57 155 4.0 5.0 0.00 0.00 0.00 92 1018.9
20260902083906 57 199 2.0 2.0 0.00 0.00 0.00 92 1018.6
20260902083401 57 159 1.0 2.0 0.00 0.00 0.00 92 1018.7
20260902082856 57 217 0.0 0.0 0.00 0.00 0.00 93 1018.6
20260902082352 57 197 0.0 1.0 0.00 0.00 0.00 93 1018.8
20260902081848 57 208 1.0 1.0 0.00 0.00 0.00 93 1018.6
20260902081344 56 183 3.0 3.0 0.00 0.00 0.00 93 1018.7
20260902080838 56 205 3.0 3.0 0.00 0.00 0.00 93 1018.8
20260902080335 56 212 0.0 1.0 0.00 0.00 0.00 93 1018.7
20260902075834 56 202 1.0 1.0 0.00 0.00 0.00 92 1018.7
20260902075331 56 209 0.0 0.0 0.00 0.00 0.00 92 1018.9
20260902074825 57 187 1.0 2.0 0.00 0.00 0.00 92 1018.8
20260902074316 57 243 0.0 0.0 0.00 0.00 0.00 92 1018.9
20260902073816 57 259 0.0 0.0 0.00 0.00 0.00 92 1018.9
20260902073312 57 233 0.0 0.0 0.00 0.00 0.00 92 1018.9
20260902072808 57 196 1.0 2.0 0.00 0.00 0.00 92 1019.1
20260902072309 57 212 1.0 1.0 0.00 0.00 0.00 92 1019.0
20260902071800 57 191 1.0 1.0 0.00 0.00 0.00 92 1019.4
20260902071254 57 216 0.0 0.0 0.00 0.00 0.00 91 1019.4
20260902070751 57 179 4.0 5.0 0.00 0.00 0.00 92 1019.5
20260902070250 57 220 0.0 0.0 0.00 0.00 0.00 92 1019.2
20260902065749 57 62 0.0 1.0 0.00 0.00 0.00 91 1019.6
20260902065244 57 181 2.0 2.0 0.00 0.00 0.00 91 1019.5
20260902064740 57 200 0.0 1.0 0.00 0.00 0.00 91 1019.6
20260902064236 57 240 0.0 0.0 0.00 0.00 0.00 91 1019.8
20260902063731 58 226 0.0 0.0 0.00 0.00 0.00 91 1020.1
20260902063226 58 226 0.0 0.0 0.00 0.00 0.00 91 1020.0
20260902062725 58 202 2.0 2.0 0.00 0.00 0.00 91 1020.4
20260902062221 58 179 4.0 5.0 0.00 0.00 0.00 91 1020.6
20260902061719 58 179 3.0 5.0 0.00 0.00 0.00 91 1020.6
20260902061215 58 199 3.0 3.0 0.00 0.00 0.00 90 1020.8
20260902060712 58 171 3.0 3.0 0.00 0.00 0.00 90 1020.8
20260902060207 58 154 7.0 8.0 0.00 0.00 0.00 90 1020.9
20260902055703 58 152 7.0 8.0 0.00 0.06 0.06 90 1020.7
20260902055159 58 177 5.0 5.0 0.00 0.06 0.06 91 1020.6
20260902054654 58 140 6.0 9.0 0.00 0.06 0.06 91 1020.5
20260902054150 58 175 5.0 7.0 0.00 0.06 0.06 90 1020.4
20260902053645 58 165 6.0 7.0 0.00 0.06 0.06 90 1020.2
20260902053145 58 158 7.0 8.0 0.00 0.06 0.06 90 1019.9
20260902052644 58 114 4.0 6.0 0.00 0.06 0.06 91 1019.9
20260902052140 58 196 3.0 5.0 0.00 0.06 0.06 90 1019.6
20260902051639 58 206 5.0 6.0 0.00 0.06 0.06 90 1019.6
20260902051133 59 220 3.0 3.0 0.00 0.06 0.06 90 1019.4
20260902050628 59 189 2.0 2.0 0.00 0.06 0.06 90 1019.5
20260902050123 58 189 1.0 1.0 0.00 0.06 0.06 90 1019.6
20260902045618 59 205 0.0 1.0 0.00 0.06 0.06 90 1019.6
20260902045115 59 237 0.0 0.0 0.00 0.06 0.06 89 1019.8
20260902044614 59 263 2.0 2.0 0.00 0.06 0.06 89 1019.6
20260902044110 58 277 4.0 5.0 0.00 0.06 0.06 90 1019.8
20260902043605 59 225 0.0 0.0 0.00 0.06 0.06 89 1020.0
20260902043100 59 40 1.0 2.0 0.00 0.06 0.06 89 1020.6
20260902042600 59 239 0.0 0.0 0.00 0.06 0.06 89 1020.8
20260902042056 59 233 0.0 0.0 0.00 0.06 0.06 89 1021.0
20260902041555 59 147 3.0 3.0 0.00 0.06 0.06 89 1021.1
20260902041050 59 221 1.0 1.0 0.00 0.06 0.06 89 1021.6
20260902040549 59 203 3.0 3.0 0.00 0.06 0.06 89 1021.5
20260902040045 59 214 2.0 2.0 0.00 0.06 0.06 89 1021.6
20260902035543 59 194 1.0 2.0 0.00 0.06 0.06 90 1021.3
20260902035038 59 243 0.0 1.0 0.00 0.06 0.06 89 1021.5
20260902034538 59 250 0.0 0.0 0.00 0.06 0.06 89 1021.3
20260902034037 59 230 0.0 0.0 0.00 0.06 0.06 88 1021.6
20260902033536 59 219 2.0 3.0 0.07 0.06 0.06 88 1021.6
20260902033032 59 196 3.0 3.0 0.07 0.06 0.06 88 1021.8
20260902032530 59 150 0.0 1.0 0.00 0.05 0.05 87 1021.5
20260902032025 59 244 0.0 0.0 0.00 0.05 0.05 86 1021.7
20260902031520 60 248 0.0 0.0 0.00 0.05 0.05 85 1021.7
20260902031016 60 212 1.0 1.0 0.00 0.05 0.05 85 1021.7
20260902030511 60 217 1.0 1.0 0.05 0.05 0.05 84 1021.7
20260902030011 60 198 4.0 5.0 0.05 0.05 0.05 84 1021.7
20260902025505 60 150 6.0 7.0 0.00 0.04 0.04 83 1021.2
20260902025000 60 229 3.0 3.0 0.00 0.04 0.04 83 1021.6
20260902024456 60 172 1.0 1.0 0.07 0.04 0.04 82 1021.5
20260902023950 61 164 3.0 3.0 0.12 0.04 0.04 81 1021.3
20260902023446 62 172 5.0 7.0 0.12 0.03 0.03 79 1021.3
20260902022945 62 171 5.0 6.0 0.07 0.02 0.02 77 1021.0
20260902022441 63 176 5.0 8.0 0.00 0.01 0.01 75 1020.8
20260902021936 64 145 4.0 5.0 0.00 0.01 0.01 72 1020.9
20260902021431 64 4 1.0 1.0 0.07 0.01 0.01 72 1020.8
20260902020926 67 50 0.0 1.0 0.07 0.01 0.01 66 1020.6
20260902020423 67 254 3.0 3.0 0.00 0.00 0.00 61 1020.2
20260902015918 68 257 1.0 3.0 0.00 0.00 0.00 57 1020.4
20260902015414 68 230 7.0 8.0 0.00 0.00 0.00 58 1020.2
20260902014909 68 200 5.0 7.0 0.00 0.00 0.00 57 1020.0
20260902014406 68 185 7.0 8.0 0.00 0.00 0.00 58 1020.0
20260902013904 69 170 7.0 9.0 0.00 0.00 0.00 59 1019.9
20260902013400 69 214 6.0 7.0 0.00 0.00 0.00 57 1019.6
20260902012855 68 157 10.0 11.0 0.00 0.00 0.00 58 1019.9
20260902012351 69 185 12.0 14.0 0.00 0.00 0.00 58 1019.9
20260902011846 69 133 8.0 8.0 0.00 0.00 0.00 56 1019.6
20260902011340 69 143 3.0 3.0 0.00 0.00 0.00 55 1019.0
20260902010835 69 179 7.0 9.0 0.00 0.00 0.00 55 1018.6
20260902010330 68 129 4.0 5.0 0.00 0.00 0.00 56 1017.9
20260902005829 67 206 3.0 3.0 0.00 0.00 0.00 60 1017.6
20260902005323 68 277 7.0 7.0 0.00 0.00 0.00 60 1017.8
20260902004819 67 326 11.0 14.0 0.00 0.00 0.00 62 1017.6
20260902004314 69 263 13.0 15.0 0.00 0.00 0.00 60 1017.5
20260902003808 70 279 7.0 8.0 0.00 0.00 0.00 55 1017.4
20260902003304 69 232 13.0 15.0 0.00 0.00 0.00 54 1017.7
20260902002759 72 244 10.0 14.0 0.00 0.00 0.00 49 1017.3
20260902002259 73 223 12.0 15.0 0.00 0.00 0.00 48 1017.8
20260902001754 72 188 15.0 17.0 0.00 0.00 0.00 46 1017.4
20260902001250 71 176 21.0 23.0 0.00 0.00 0.00 53 1017.3
20260902000749 72 198 11.0 13.0 0.00 0.00 0.00 52 1017.4
20260902000244 74 168 10.0 11.0 0.00 0.00 0.00 48 1016.9
20260901235739 79 139 5.0 8.0 0.00 0.00 0.00 40 1016.5
20260901235234 81 129 11.0 14.0 0.00 0.00 0.00 29 1015.8